Theta_e
353 352 353 354 354 353 353 352 352 351 350 349 348 348 348 348 349 350 350 350 351 351 351 351 351 351 351 351 351 352 353 352 353 353 354 353 353 353 352 352 352 352 352 353 353 353 352 352 351 350 349 349 349 349 349 349 347 347 346 345 346 346 346 345 345 343 341 341 341 341 340 340 340 342 342 340 342 342 341 341 341 340 341 341 341
351 353 354 355 354 354 352 353 352 351 351 350 348 348 348 349 349 349 349 350 350 350 350 350 350 351 351 351 351 351 353 353 353 353 353 353 353 353 353 352 352 352 353 352 352 351 353 351 350 349 349 349 350 349 348 347 347 346 345 345 344 344 343 342 341 340 339 339 339 339 338 338 339 339 339 339 339 341 340 340 340 340 340 340 340
354 353 354 353 354 353 353 353 352 351 350 349 349 348 348 349 349 349 349 349 349 350 350 350 350 351 351 351 351 351 351 352 351 352 352 353 352 353 353 352 352 352 352 352 352 352 351 350 350 349 349 349 349 348 345 345 345 344 344 343 343 342 341 339 340 341 341 343 341 340 340 341 340 340 340 340 340 339 339 339 339 339 338 338 339
352 353 354 353 352 353 353 353 352 351 349 349 349 348 348 349 349 349 349 349 349 349 350 350 351 351 351 351 351 351 351 351 351 352 352 352 352 353 352 351 351 352 352 352 352 351 351 351 350 349 349 349 348 346 345 345 344 342 341 341 340 340 340 341 341 341 342 343 342 339 340 338 336 337 337 338 338 339 339 340 339 339 338 338 338
352 353 353 352 352 353 353 353 352 351 350 350 349 348 348 348 349 349 349 349 349 350 350 350 350 351 351 351 351 352 351 351 351 352 352 352 352 352 352 353 352 351 352 352 351 351 350 350 350 349 349 349 348 346 345 344 344 343 342 341 341 340 340 340 342 342 343 343 340 340 339 339 339 340 341 341 340 339 338 339 338 337 337 340 340
352 353 353 352 350 352 353 352 352 352 350 350 349 348 348 349 349 349 348 349 349 350 350 351 351 352 352 352 352 352 352 352 352 352 354 352 352 352 352 353 352 351 352 352 351 351 350 349 349 349 349 350 349 348 347 345 345 344 344 343 342 341 341 342 342 343 343 342 340 339 339 339 335 335 340 339 338 338 339 338 338 339 338 337 338
353 353 352 352 351 352 353 352 352 352 350 349 348 348 347 348 348 348 349 349 350 350 351 352 353 353 352 353 352 353 353 352 352 352 353 352 351 352 352 352 351 351 351 350 351 350 349 349 349 349 350 350 349 348 347 347 346 346 346 345 342 341 341 342 343 343 340 340 340 338 339 338 339 335 337 337 337 337 336 339 338 338 338 338 338
353 352 352 350 351 353 353 352 352 351 351 349 348 348 347 348 348 348 349 349 351 350 351 352 353 352 352 353 353 353 352 352 352 352 352 351 351 350 350 351 351 351 350 350 350 350 350 348 349 350 349 348 348 346 345 344 344 344 344 344 342 341 341 342 343 343 341 340 339 340 341 339 338 339 341 341 341 340 338 337 337 337 336 335 335
350 351 352 351 351 352 352 352 352 351 350 350 349 349 347 348 348 348 349 349 350 350 350 351 352 353 353 353 352 352 352 352 351 352 352 351 350 350 350 350 350 350 349 349 348 348 348 349 348 348 348 348 347 345 344 343 343 343 344 344 343 342 342 342 339 339 339 339 338 338 339 339 341 342 342 342 342 342 341 340 341 339 338 338 338
350 351 351 351 351 352 352 352 352 351 350 350 349 348 348 348 349 349 349 350 349 349 350 351 352 353 353 352 352 352 352 352 351 350 351 351 350 349 349 350 349 351 350 349 349 348 348 347 347 346 348 346 345 344 344 344 344 345 345 344 344 343 343 342 341 341 341 340 338 337 339 339 338 339 342 343 343 343 343 343 344 344 343 342 340
350 350 350 351 351 353 352 352 351 350 351 350 349 349 348 348 349 349 348 348 349 349 350 352 352 353 353 352 352 352 352 352 351 350 350 349 350 350 350 350 350 349 350 349 348 347 346 347 346 346 345 345 344 344 345 346 346 347 347 345 344 344 343 343 341 339 339 338 337 338 341 342 343 343 344 345 344 344 343 342 342 342 341 341 341
349 350 351 350 354 352 352 351 351 351 349 349 349 349 348 348 348 349 349 349 349 350 351 352 352 352 353 352 352 352 352 351 351 350 349 350 350 350 350 350 350 349 349 348 346 346 346 346 345 344 344 344 345 345 346 347 347 347 347 346 345 344 343 342 340 340 339 338 337 338 339 341 342 343 343 343 343 342 341 341 340 340 339 339 339
348 349 350 352 353 353 352 351 351 351 350 350 349 348 348 348 348 348 349 350 351 351 352 353 353 352 352 352 352 351 351 350 350 350 350 349 349 349 349 349 349 348 347 345 345 345 345 345 345 344 344 344 345 346 346 346 347 346 345 345 344 343 343 341 339 339 339 339 339 338 338 341 342 341 341 340 340 340 340 339 338 338 337 337 336
348 349 351 351 352 353 352 351 351 350 349 349 349 349 348 348 348 349 350 351 352 352 352 352 352 352 351 351 351 350 350 350 350 350 349 349 349 348 348 348 347 346 345 345 344 344 344 344 345 345 344 344 345 346 346 346 346 345 345 344 343 343 342 341 342 339 339 339 340 338 340 342 342 341 340 340 340 339 338 338 337 336 336 335 335
348 349 351 351 352 352 352 351 351 350 350 349 349 348 348 349 350 350 350 350 352 352 352 352 352 351 351 351 350 350 350 349 349 348 348 348 348 348 347 347 346 346 345 344 343 342 342 342 344 344 344 344 344 346 346 345 345 344 344 343 343 342 341 340 339 339 338 338 339 338 339 341 341 342 338 338 339 338 337 336 335 334 334 334 334
350 351 351 350 351 353 352 351 350 349 349 348 348 348 349 350 350 349 350 351 351 352 352 351 351 351 350 350 349 349 349 348 348 347 347 347 347 346 346 345 345 345 344 344 343 342 342 343 344 344 344 343 344 345 345 344 344 344 343 343 342 341 341 340 340 339 339 339 339 340 339 340 339 339 337 336 335 335 334 334 335 335 335 334 334
349 350 349 350 351 351 351 351 350 349 347 347 347 348 349 349 349 349 350 350 351 351 351 351 351 351 350 350 349 349 348 348 348 347 347 347 346 346 346 345 345 345 345 344 344 342 342 343 343 343 343 343 344 345 345 344 344 344 343 342 342 341 341 339 337 339 338 338 337 338 340 339 338 339 335 334 334 334 335 335 334 334 334 334 333
349 349 348 349 350 351 350 351 350 350 349 348 347 348 349 349 349 349 349 350 351 350 351 350 351 350 350 349 349 349 348 348 347 347 347 347 346 346 346 345 345 345 344 345 343 343 342 343 343 343 343 343 345 346 345 344 344 343 342 342 342 341 341 339 338 338 338 338 337 339 340 339 339 337 336 336 336 336 336 333 335 335 336 335 334
349 348 349 349 348 349 348 349 349 348 349 349 349 348 348 348 349 349 349 349 350 351 350 350 350 350 349 349 349 349 348 347 347 346 346 346 346 345 345 345 345 345 345 344 344 343 343 342 343 343 342 343 345 346 346 345 343 342 342 342 342 341 340 339 337 337 337 338 338 339 340 339 340 336 336 335 335 335 335 335 336 337 337 336 336
346 347 347 347 347 347 348 347 348 348 349 348 348 348 347 347 348 349 349 349 350 351 350 350 350 350 350 350 349 349 348 348 347 347 346 346 345 346 345 345 345 345 346 345 344 343 343 343 343 343 342 343 345 345 346 345 343 343 342 342 342 342 341 341 338 336 337 337 339 340 338 337 336 336 336 335 335 335 335 335 336 334 333 332 333
344 344 345 346 346 346 346 347 347 348 348 348 348 347 347 347 348 348 348 348 349 350 350 349 350 350 350 349 348 349 350 349 349 349 346 347 346 345 345 345 345 345 345 345 344 344 343 343 343 343 342 343 344 345 345 345 343 343 343 343 343 342 342 341 340 338 338 338 338 336 336 336 336 335 335 336 335 335 334 333 332 331 331 331 332
342 342 344 345 344 346 346 346 346 347 346 346 346 347 347 347 347 347 348 348 348 348 350 351 351 351 349 349 350 349 349 349 349 348 348 348 347 345 345 344 345 345 345 345 345 345 344 343 343 340 337 339 341 346 347 345 344 343 343 342 342 341 342 341 340 338 337 338 338 338 336 336 336 335 336 335 334 334 333 331 332 330 332 332 331
340 342 343 344 345 345 346 346 345 345 344 345 345 346 347 347 347 347 347 348 349 349 350 350 350 349 349 348 349 349 348 348 347 347 348 347 347 346 345 344 344 344 344 344 345 345 344 344 341 338 336 334 342 344 345 345 345 344 344 343 342 341 341 341 340 339 338 338 338 338 337 337 336 335 335 334 334 333 330 333 331 331 332 330 329
339 340 341 344 345 344 345 345 344 344 342 344 344 345 346 346 345 346 347 348 348 348 349 349 348 349 348 348 349 348 348 348 346 347 347 347 347 346 346 346 346 345 344 345 345 345 343 342 340 338 338 340 340 339 341 343 345 347 346 342 341 340 340 340 338 339 339 337 337 338 337 337 336 336 335 335 334 334 332 332 333 332 331 328 329
340 342 342 342 343 344 344 344 345 344 344 344 344 345 344 346 346 346 346 347 347 347 347 347 347 347 347 347 346 347 347 347 347 347 346 346 345 347 347 346 347 346 343 344 345 343 344 343 341 339 340 339 338 340 341 343 345 344 342 341 341 341 340 341 339 338 339 339 339 338 337 337 336 336 336 335 333 332 332 333 332 330 329 329 330
340 338 340 342 343 343 344 344 344 344 343 343 344 345 344 344 345 346 346 347 346 347 346 346 346 346 346 346 346 346 346 345 346 346 345 346 345 343 345 345 344 344 344 344 344 345 343 342 341 339 339 341 340 340 341 342 343 342 341 341 340 340 340 339 339 339 340 340 340 338 338 337 337 337 336 336 334 334 333 333 333 331 329 329 327
338 338 340 341 342 343 343 344 342 343 343 345 345 345 345 345 345 346 344 345 347 344 345 346 346 345 345 346 346 346 345 345 345 346 346 346 346 345 345 346 344 343 343 343 344 345 344 342 343 341 340 339 339 339 339 340 342 340 340 339 340 340 341 339 339 339 339 340 340 337 339 337 337 337 336 336 334 333 333 332 333 331 329 330 329
338 338 339 340 341 341 343 343 342 342 343 344 344 344 345 344 344 346 345 345 345 344 345 346 345 346 345 347 346 345 345 346 344 345 345 345 345 345 346 344 344 345 344 343 343 343 343 343 344 342 341 339 338 338 338 336 338 340 339 340 340 341 341 340 340 340 340 340 339 338 338 338 338 337 336 336 335 334 332 334 332 332 330 330 330
336 337 339 339 340 342 343 342 342 343 343 343 342 344 344 344 346 345 344 344 343 344 344 345 345 346 346 346 346 345 346 344 344 345 345 344 344 344 346 344 345 345 345 344 344 344 343 343 343 341 342 341 339 340 338 337 339 338 338 339 340 340 341 341 340 339 339 339 340 339 338 338 339 338 337 336 336 334 333 334 334 333 331 330 330
337 338 338 339 341 342 342 341 343 343 343 343 342 342 343 343 344 344 344 345 344 345 345 345 345 346 345 345 346 346 346 345 345 346 344 344 345 345 345 345 345 345 345 345 344 344 343 342 342 341 338 339 338 340 339 339 338 339 338 338 340 341 341 340 340 339 339 340 340 340 337 339 340 339 338 338 336 335 334 334 335 334 333 330 331
337 337 338 338 340 341 341 342 343 343 342 341 342 341 342 342 343 344 344 344 344 344 345 346 344 345 345 345 345 345 344 344 345 345 344 344 344 344 344 345 346 345 344 345 346 345 344 344 343 341 340 339 339 341 340 340 340 340 340 338 338 341 341 342 341 341 339 339 340 340 338 338 339 338 338 339 337 336 334 334 334 333 332 331 331
336 337 338 339 339 339 340 341 342 343 342 342 342 342 342 342 343 344 343 344 345 343 344 344 344 345 344 344 344 344 344 344 343 343 342 342 341 341 341 342 343 344 344 344 344 345 344 343 343 343 343 342 341 340 342 340 340 339 340 339 340 339 338 341 340 340 340 340 340 340 340 339 339 338 338 339 337 337 336 335 333 332 332 331 331
338 339 339 339 338 340 340 341 342 342 343 342 341 341 342 342 342 343 343 343 344 344 343 344 344 343 343 342 343 342 342 342 342 341 342 343 342 340 340 339 340 342 344 344 344 344 344 343 344 343 342 341 341 340 338 340 339 339 340 340 341 339 339 339 339 340 339 340 339 339 340 340 340 339 339 338 337 337 337 336 334 333 333 333 332
336 338 339 338 339 339 340 341 341 341 342 342 342 341 342 343 343 344 344 343 343 344 343 343 343 343 343 342 342 342 342 342 340 340 340 341 341 341 339 339 339 339 341 344 343 343 342 342 342 342 340 340 339 339 337 338 337 338 339 341 341 342 340 338 338 339 339 339 339 340 339 339 339 341 340 338 337 338 338 337 335 334 333 333 332
338 338 338 339 339 340 341 340 341 342 342 342 342 342 343 343 342 342 342 343 343 342 341 341 342 343 343 342 341 342 342 342 342 342 341 341 341 341 342 340 339 340 340 342 342 342 342 341 342 340 341 341 339 339 338 339 338 337 339 342 340 341 340 339 340 338 338 338 339 339 339 339 339 340 340 339 338 338 337 337 336 335 334 334 333
338 338 339 339 339 340 341 340 341 342 342 342 342 341 341 341 342 342 342 342 342 341 341 341 342 343 343 342 342 342 343 343 342 342 342 342 343 342 343 343 341 342 341 341 341 340 341 340 342 340 337 338 337 337 339 337 337 338 340 341 342 340 339 339 339 338 338 338 337 338 338 338 339 338 339 339 340 339 337 336 337 337 335 334 334
339 339 338 338 339 340 340 339 339 341 341 341 341 341 341 341 342 343 342 342 342 341 342 342 342 342 343 343 342 342 342 342 342 342 343 342 342 343 342 341 341 341 343 341 340 340 339 339 340 340 339 337 336 335 336 336 336 337 339 340 342 341 338 338 339 338 337 336 337 337 338 338 338 338 340 339 340 339 337 336 337 336 337 336 335
340 339 339 338 339 340 340 339 339 340 341 340 340 341 341 342 342 342 344 343 342 342 342 342 343 343 343 344 342 342 343 342 343 343 344 342 343 342 342 341 340 340 341 341 338 339 339 338 337 339 337 336 336 335 335 335 335 336 337 339 341 341 341 340 338 337 337 336 336 336 337 338 337 338 337 338 340 339 338 337 336 337 337 335 334
339 339 339 339 339 339 339 339 339 340 341 341 342 343 343 342 343 343 343 343 344 343 343 343 344 344 344 342 342 342 342 342 341 342 342 342 341 342 342 341 341 341 339 337 338 337 337 336 334 335 335 336 337 336 336 336 337 336 335 336 338 339 341 340 337 335 335 336 335 335 336 336 337 337 338 338 339 338 338 337 336 335 335 335 335
339 339 338 338 338 338 339 339 340 341 342 341 341 341 341 341 340 342 341 341 342 342 343 342 343 343 342 342 341 341 341 341 341 341 341 340 340 341 340 340 340 340 339 337 338 337 335 334 334 334 334 334 335 335 336 335 334 335 334 336 338 337 338 337 336 336 336 334 333 334 334 336 336 336 337 337 338 337 337 336 336 334 337 336 334
337 336 336 337 338 338 338 337 339 341 341 340 339 339 338 338 339 339 339 340 340 341 341 342 342 343 342 341 342 342 341 340 341 341 341 340 340 341 341 341 341 339 338 338 338 339 338 336 335 335 333 333 334 335 336 336 333 331 333 333 334 336 337 337 337 336 336 336 334 332 333 334 335 335 335 336 336 337 337 337 336 336 336 336 336
333 335 334 335 336 338 336 336 338 339 340 341 340 340 341 341 340 339 339 338 339 338 337 339 340 340 341 341 341 340 339 339 341 342 341 340 339 340 340 340 341 340 340 342 340 340 341 339 336 334 335 333 331 334 334 333 329 328 328 330 331 334 336 336 336 336 337 338 337 334 334 333 333 335 336 335 335 337 337 337 335 335 335 335 336
332 332 334 334 334 335 336 337 337 338 339 340 341 339 340 341 341 339 339 335 337 338 337 337 338 338 339 340 341 340 340 339 339 340 341 341 341 340 339 341 340 340 341 340 340 339 339 338 336 333 334 335 333 334 333 333 327 331 330 325 323 323 330 331 334 335 335 337 337 334 334 333 333 335 334 333 332 334 336 335 336 335 335 335 335
331 332 332 332 333 333 334 335 335 336 337 338 338 339 339 339 339 338 338 337 334 334 335 337 337 336 336 339 339 339 339 340 340 339 340 340 340 339 340 340 340 340 339 338 339 338 338 338 336 334 333 331 331 331 335 334 333 329 323 324 325 323 318 324 329 333 338 336 335 334 335 333 335 335 335 330 331 333 333 334 333 334 334 335 335
328 329 330 331 331 332 333 334 334 335 336 336 337 339 338 337 337 336 336 334 334 334 333 332 333 335 335 336 337 338 338 338 339 339 338 338 338 338 338 338 338 339 339 337 336 335 335 336 335 334 333 331 330 333 334 335 334 335 328 323 322 319 320 324 326 327 335 335 334 334 334 333 333 334 334 331 332 333 334 332 332 333 334 335 336
324 326 328 330 331 331 332 333 333 334 334 335 336 337 337 336 335 333 330 330 327 328 327 327 329 330 330 333 334 335 335 336 337 338 338 337 337 336 337 337 338 337 337 336 335 335 333 334 334 334 333 335 334 330 331 337 336 336 335 332 330 323 323 327 326 319 332 334 335 336 335 334 334 333 334 335 332 333 334 332 333 333 334 334 336
323 326 328 328 330 330 331 331 331 331 333 334 335 335 335 334 333 331 330 328 325 325 327 328 328 329 330 329 330 332 332 332 334 335 335 335 336 336 336 336 336 336 336 335 334 333 333 333 334 335 334 334 333 328 329 330 334 334 335 335 335 333 331 326 322 323 319 327 334 332 333 335 335 334 332 333 333 332 332 333 332 332 333 334 335
324 326 326 326 327 327 328 328 329 329 330 332 332 333 331 332 332 330 328 327 326 325 326 326 328 329 328 328 329 329 330 330 330 331 333 333 333 333 334 334 335 335 336 334 333 334 334 334 335 335 334 334 333 330 329 331 327 329 334 332 332 332 332 331 330 323 321 318 322 331 335 334 334 334 334 333 333 333 332 332 332 333 333 335 335
324 324 324 325 326 326 326 326 326 327 328 329 330 330 330 329 328 328 325 326 326 325 325 325 326 328 327 327 327 328 328 328 329 329 330 331 332 332 332 332 332 332 333 332 333 334 335 333 332 333 333 333 335 334 331 329 330 328 328 331 332 331 330 330 329 328 322 320 319 322 325 331 333 333 334 334 334 335 334 333 334 334 337 334 332
323 324 324 324 324 324 323 323 323 324 325 326 327 327 328 328 326 325 323 322 323 324 324 323 324 326 324 325 325 326 326 326 327 327 327 329 330 330 330 330 331 332 331 331 331 331 331 331 332 333 333 332 335 333 330 330 330 330 330 329 326 328 327 327 328 326 325 322 318 320 324 325 325 329 334 333 334 334 334 336 335 336 334 332 332
321 320 321 322 322 322 321 320 321 321 322 322 323 323 324 325 324 324 323 323 322 322 322 323 323 324 323 323 323 323 324 324 325 325 324 325 327 328 327 327 327 328 328 329 327 327 328 329 331 331 332 331 334 332 331 332 332 330 330 329 327 326 324 323 323 324 324 322 322 321 323 324 324 324 330 335 334 334 334 335 335 334 333 333 333
Wind_Speed
13 15 13 16 14 16 16 17 18 17 16 15 14 14 13 14 14 14 15 15 15 16 16 16 15 15 15 15 15 14 13 13 11 10 11 12 13 14 14 15 15 16 16 16 17 17 18 17 17 16 16 17 17 16 16 16 16 16 16 17 17 17 16 16 16 16 15 14 13 13 12 11 12 12 11 11 12 12 12 10 6 8 7 9 11
16 14 13 14 14 15 17 18 19 17 16 16 15 14 14 14 14 14 15 14 15 15 15 15 15 15 15 14 14 13 12 11 10 11 11 12 13 13 14 15 15 16 16 16 17 17 17 16 16 17 17 17 16 16 16 16 16 16 16 16 16 15 15 15 15 15 15 15 14 14 14 13 12 12 12 11 11 11 11 11 11 8 8 11 12
15 13 12 15 16 17 17 18 19 17 16 16 16 14 14 13 14 14 14 14 14 14 14 14 14 14 14 14 13 12 12 12 11 11 11 12 13 14 14 15 15 15 17 17 17 17 16 16 17 17 17 17 16 16 16 16 16 16 16 15 15 14 14 14 14 14 14 12 13 16 14 15 14 13 13 12 12 11 11 10 10 9 9 11 11
16 12 12 15 17 15 16 17 18 18 17 16 16 14 14 13 13 13 14 13 13 13 13 13 13 13 13 13 12 12 12 11 11 11 11 11 12 13 14 14 15 16 16 17 17 17 17 16 16 16 16 16 16 16 16 16 17 16 16 15 15 14 14 15 15 13 13 13 11 10 8 9 11 11 12 11 12 12 12 13 13 13 12 10 11
15 13 12 12 13 14 15 17 18 18 17 17 16 15 14 13 14 14 13 13 13 13 13 12 12 12 12 12 11 11 11 11 10 10 10 11 10 13 14 14 15 16 16 16 16 16 16 16 16 16 16 16 16 16 16 16 16 16 15 15 14 14 14 14 13 13 13 12 9 10 9 10 9 13 13 13 12 12 12 12 11 10 11 13 14
14 12 12 11 12 13 14 16 18 18 17 17 16 15 15 14 14 14 14 13 13 13 13 12 12 11 12 12 11 11 10 10 9 9 8 9 8 11 13 15 14 15 16 15 15 15 16 16 16 15 15 15 15 16 16 15 15 15 14 13 13 13 13 12 12 13 13 12 10 8 8 9 9 8 13 12 12 12 10 11 11 11 11 10 11
15 12 11 11 11 13 12 16 18 17 17 17 16 16 15 14 14 14 14 13 13 13 12 10 10 11 12 11 11 11 11 10 9 9 9 10 10 10 13 14 14 15 15 14 14 15 15 15 15 15 15 14 14 14 14 14 14 14 13 11 14 13 13 12 12 11 10 8 7 8 8 9 9 8 12 12 12 11 10 12 11 11 10 10 10
12 11 11 11 10 13 13 16 17 17 17 17 16 16 15 14 13 14 13 13 12 12 11 10 11 12 12 12 12 11 11 10 10 11 11 10 10 11 12 14 14 14 14 13 14 14 14 14 14 14 14 14 13 12 11 10 9 7 9 11 12 12 13 12 12 10 8 7 8 8 7 8 9 8 10 11 12 11 11 10 10 10 10 10 7
12 12 11 11 12 16 14 15 17 17 17 16 16 15 15 14 13 14 13 13 12 11 11 11 11 12 12 12 13 12 12 12 11 12 11 12 12 11 13 14 14 14 14 13 13 13 13 13 13 13 13 12 12 11 9 8 6 5 7 10 11 12 12 12 12 10 8 7 8 8 8 9 9 8 10 10 11 11 9 9 11 10 10 9 9
12 11 10 9 12 15 13 14 16 17 17 15 15 15 15 14 13 13 13 13 12 11 10 11 12 12 12 13 13 13 13 13 12 11 12 13 12 12 13 13 13 14 14 13 12 12 12 12 11 12 12 11 11 10 9 7 6 6 7 10 11 11 12 11 11 9 7 7 7 7 8 8 8 8 10 10 10 9 8 10 11 10 9 9 10
12 10 10 10 14 12 12 13 16 16 16 15 15 15 15 14 14 13 13 12 12 11 11 11 12 13 12 13 13 13 13 13 12 11 12 12 12 12 12 12 12 12 13 12 11 11 11 11 11 12 12 11 10 9 9 9 7 7 10 13 12 12 11 10 8 6 7 7 8 8 8 6 7 8 11 12 12 12 12 11 12 12 12 12 12
12 10 10 10 15 11 12 14 15 15 15 14 15 15 14 14 13 12 12 11 11 11 11 11 12 12 14 13 12 12 13 13 12 11 11 11 11 11 12 12 12 12 13 12 11 10 10 11 12 12 12 10 9 10 10 11 11 12 14 14 12 11 10 6 5 6 8 9 9 8 8 8 9 10 11 11 11 11 11 11 11 10 11 11 11
12 11 10 11 12 12 12 13 14 14 14 15 14 14 14 13 13 12 11 8 9 10 10 11 11 11 12 13 13 13 13 12 11 11 11 10 11 11 11 12 12 12 11 10 10 9 10 10 11 11 11 11 10 10 10 11 12 14 14 13 12 11 9 6 6 7 7 8 7 7 8 7 8 9 8 8 8 8 9 9 9 9 9 9 9
12 11 11 12 10 15 12 12 12 13 13 13 13 12 13 12 12 11 8 8 9 10 10 11 12 13 12 12 12 12 12 11 11 11 11 10 10 10 11 11 12 10 10 10 9 9 9 9 10 11 11 10 10 10 11 11 12 13 13 12 12 11 10 6 7 7 7 7 6 7 7 5 7 8 7 7 7 7 7 8 8 8 7 7 8
12 13 12 11 12 11 15 12 11 12 12 11 11 12 12 10 10 9 9 10 12 10 11 12 12 12 13 13 12 12 12 12 11 11 11 10 9 10 10 11 11 11 10 10 9 8 8 8 8 9 10 9 9 10 11 11 11 12 12 12 12 10 8 6 5 6 6 6 6 6 6 6 6 4 7 6 6 6 6 6 7 7 7 7 7
12 13 13 12 12 12 11 14 14 13 13 13 12 13 12 11 10 10 9 11 10 9 12 12 12 13 12 12 12 11 11 11 11 11 10 9 9 9 9 9 10 10 10 10 9 8 8 7 7 8 9 9 9 10 11 12 11 11 11 10 10 9 6 4 5 5 5 5 5 5 5 7 7 6 6 5 4 5 5 5 7 7 7 7 7
12 12 13 13 12 11 10 11 13 15 14 13 13 12 11 11 10 10 10 11 12 12 13 13 13 12 12 12 12 11 11 12 11 10 10 9 9 9 8 8 9 9 9 9 9 8 7 7 6 7 8 8 8 9 11 12 12 11 10 10 10 9 8 4 5 4 4 5 4 4 4 6 8 7 6 5 4 5 5 6 5 5 6 6 6
12 12 12 12 12 11 10 10 12 11 10 12 13 13 12 12 11 10 9 9 9 11 12 12 12 12 12 12 12 12 12 11 10 10 9 9 8 7 7 7 8 8 8 9 9 9 7 7 6 7 8 8 8 8 11 12 12 11 10 10 9 9 8 5 4 4 4 5 4 3 3 7 7 6 7 7 6 5 5 4 4 4 5 5 5
11 11 12 11 11 11 11 10 10 10 11 9 8 11 13 12 10 10 10 9 10 12 13 12 13 13 13 12 11 11 10 10 10 9 8 8 8 6 6 6 7 7 8 8 8 8 7 7 7 7 7 7 7 8 9 12 11 11 10 10 9 9 8 5 4 4 5 4 3 3 4 6 5 6 7 6 6 5 5 4 6 6 6 7 6
10 9 10 10 10 10 9 9 9 9 9 8 9 10 11 11 10 10 10 9 11 13 11 11 12 12 12 11 12 10 9 8 9 8 8 7 5 5 5 5 5 6 7 8 8 8 8 7 7 7 7 7 7 9 10 11 11 10 10 10 9 10 5 2 4 4 4 3 3 3 7 3 4 6 6 7 5 5 5 5 5 5 4 4 4
7 8 8 9 10 10 9 8 9 10 9 9 8 8 10 11 9 10 9 9 10 12 11 11 10 11 10 10 8 6 6 6 5 6 6 5 5 5 4 4 4 5 6 7 7 8 8 8 8 8 7 6 8 10 10 10 11 10 10 9 10 5 3 3 3 3 3 4 4 3 7 6 5 5 5 5 5 5 5 4 3 1 2 4 3
9 8 8 9 9 9 10 9 8 9 8 7 7 6 8 8 7 7 8 8 9 10 9 7 8 8 10 7 5 5 4 4 4 4 3 4 5 4 4 3 3 4 5 6 6 7 7 8 10 8 6 4 1 5 7 8 9 10 9 9 6 3 3 3 3 3 3 3 3 6 7 6 5 3 5 4 3 5 5 3 3 2 4 3 3
10 9 9 10 8 8 8 8 8 8 8 8 6 7 8 6 7 7 6 7 7 7 7 7 6 6 6 5 4 4 4 3 3 3 2 4 5 3 3 3 3 4 4 5 6 6 8 9 10 7 5 1 2 4 4 5 6 9 8 6 3 3 3 3 3 3 3 3 3 8 8 7 6 4 4 4 4 4 2 6 4 4 4 3 3
10 9 9 8 8 7 7 6 7 8 7 6 6 6 6 7 6 6 6 6 6 5 6 6 5 5 5 4 4 4 3 2 4 3 1 2 2 3 5 4 4 5 7 2 3 7 6 7 9 5 1 2 3 3 3 3 4 5 4 4 4 3 4 3 3 3 2 5 3 10 9 9 7 7 5 6 5 7 5 4 5 5 4 3 3
8 8 8 8 8 8 7 7 7 7 7 6 7 6 6 6 6 5 5 6 6 5 5 5 4 5 4 3 3 3 3 2 1 1 2 2 1 1 0 2 3 3 4 2 2 2 2 3 3 2 1 1 2 3 2 3 3 3 3 4 3 4 3 3 2 2 3 4 4 9 8 8 7 7 6 6 5 4 3 4 4 5 4 4 5
8 8 8 7 7 7 7 7 7 7 6 6 6 6 6 6 6 6 5 5 5 5 4 4 4 3 2 3 3 3 2 1 1 0 1 1 1 1 1 1 1 2 2 2 2 2 2 2 2 2 1 0 1 2 2 2 3 3 3 3 3 4 4 3 3 3 3 3 4 8 7 8 7 8 7 6 7 7 5 4 5 6 6 4 2
8 7 7 6 7 7 7 7 6 6 6 6 6 6 6 5 5 5 5 5 5 5 4 4 3 3 2 2 2 2 2 1 1 1 0 2 2 2 1 0 0 1 1 2 2 1 1 1 1 2 1 1 1 2 2 2 1 3 3 3 3 4 3 3 3 4 3 3 3 8 7 8 8 8 7 5 6 6 6 3 5 6 8 7 6
8 8 7 7 7 7 7 7 6 6 5 6 5 5 5 6 5 6 5 6 4 5 4 4 3 2 2 1 1 1 1 1 0 1 1 1 2 2 2 2 1 0 1 2 2 1 1 1 1 1 2 2 2 2 2 2 2 1 2 3 3 4 4 4 4 4 3 4 4 7 8 8 8 8 7 6 6 7 6 7 5 7 7 7 7
9 8 7 7 7 7 7 7 7 7 5 5 5 4 5 4 5 5 5 5 4 4 4 4 4 3 2 1 2 2 2 1 2 1 2 2 2 2 2 3 3 2 2 1 2 2 1 1 0 1 1 2 3 2 2 2 3 3 3 3 4 4 4 4 5 5 5 4 4 6 9 9 8 7 8 8 8 5 7 7 6 7 7 8 8
10 9 8 7 7 7 7 7 6 6 5 5 4 4 4 5 4 4 4 5 5 4 4 4 3 3 2 2 1 1 1 2 2 2 3 3 3 2 2 2 3 2 2 2 1 2 2 2 1 1 1 1 3 3 2 2 3 3 3 4 4 4 4 5 5 5 5 5 5 5 8 8 8 8 8 8 9 6 7 7 8 8 8 8 8
10 9 8 7 7 7 7 6 6 5 5 4 4 4 4 4 4 3 3 3 4 4 3 3 3 3 2 2 1 1 2 2 3 3 2 3 3 3 3 3 3 2 2 2 2 2 2 2 2 2 2 2 2 3 3 4 4 4 4 5 4 4 4 4 5 5 6 5 5 5 7 10 9 10 9 7 8 8 8 7 9 8 8 8 8
10 9 7 7 7 7 7 7 6 6 6 5 5 5 4 4 4 3 3 3 3 3 3 3 3 2 2 2 2 2 1 2 3 3 3 2 2 2 2 3 4 3 3 3 3 3 3 2 2 2 2 3 2 3 3 4 4 5 3 4 4 4 4 4 5 5 6 6 6 6 5 7 11 11 10 8 8 9 9 10 8 7 7 8 9
7 8 8 7 8 8 7 7 6 6 5 5 4 4 4 4 4 3 3 3 2 2 2 2 2 2 2 1 1 1 2 2 2 2 2 2 1 1 1 2 3 4 5 4 4 3 3 3 3 2 2 2 3 3 3 3 4 4 3 2 3 4 4 4 4 5 6 6 6 6 6 6 7 10 10 10 10 8 10 10 9 10 10 10 10
8 7 8 8 6 6 6 6 7 6 5 4 4 4 4 4 3 3 3 2 2 1 2 2 1 1 1 1 1 1 1 1 1 2 2 2 2 2 3 3 3 4 4 4 4 3 3 3 3 3 2 3 3 3 4 4 4 4 3 3 3 4 3 4 5 5 5 6 6 6 6 6 6 6 7 12 11 10 11 10 10 11 11 11 11
8 8 9 9 8 7 6 5 6 6 6 5 4 4 3 3 3 3 3 2 1 1 1 2 1 0 1 1 1 1 1 1 1 2 2 2 3 3 4 3 3 3 3 4 4 4 3 4 3 3 3 3 3 4 4 4 4 5 5 3 4 2 3 4 4 5 5 5 5 6 6 6 6 6 6 6 11 12 11 11 12 11 12 12 12
9 10 9 9 9 8 7 6 6 6 5 4 4 4 4 3 3 4 3 2 2 2 1 1 1 1 1 0 0 1 1 2 2 2 2 3 3 4 4 4 4 3 2 2 3 4 4 3 3 3 3 3 4 5 3 4 3 4 4 4 3 2 3 4 5 5 5 5 6 7 7 7 7 7 7 6 6 9 13 12 10 10 11 13 13
9 9 9 8 8 9 8 7 6 5 5 5 5 5 4 4 4 3 3 3 2 2 2 1 1 1 1 1 1 1 2 2 3 2 2 2 3 3 3 3 4 3 3 2 2 3 3 4 4 2 3 3 4 6 6 6 5 4 4 5 5 4 4 5 5 4 3 6 6 6 7 7 7 8 7 7 7 7 10 13 11 11 11 11 13
9 10 9 8 9 8 7 7 6 6 5 5 6 5 5 5 4 3 4 3 3 2 2 2 1 2 2 2 3 3 3 4 3 3 3 3 3 3 3 3 2 2 3 3 4 3 2 3 5 3 3 4 3 4 6 6 6 6 6 6 5 4 5 4 4 4 5 6 6 7 7 6 7 8 8 8 8 7 7 10 11 12 12 11 12
9 10 9 8 7 7 8 8 7 7 7 7 6 6 6 5 4 3 3 4 3 3 3 3 3 3 2 3 3 3 3 4 4 4 4 4 4 4 4 4 2 2 2 2 2 2 1 3 3 4 3 3 4 4 5 5 5 6 7 8 8 7 5 5 6 7 7 7 7 7 5 6 6 7 8 8 7 7 8 8 8 9 11 13 12
9 10 9 8 9 8 8 7 7 7 6 6 5 4 4 3 4 3 4 4 5 5 4 4 4 4 4 3 3 3 2 3 3 3 3 3 3 3 4 3 3 3 3 3 2 2 3 3 3 4 4 4 4 5 5 5 6 7 7 7 7 8 9 9 9 9 8 7 7 6 7 7 7 7 7 6 6 7 8 8 8 9 9 11 14
8 9 8 9 9 8 8 8 6 6 5 5 4 4 4 4 3 5 6 6 6 6 6 6 5 4 4 4 4 3 3 3 3 3 3 3 4 3 2 3 2 2 3 3 3 3 1 2 2 3 4 4 3 4 4 4 6 6 6 7 7 8 9 10 10 10 10 9 7 6 6 6 7 7 7 7 8 8 8 8 9 8 9 8 10
9 9 9 9 9 9 8 7 6 5 5 5 5 4 3 4 5 5 6 6 6 7 7 6 6 5 5 5 5 4 3 3 4 4 3 3 3 3 4 3 3 3 4 4 4 4 3 3 2 3 1 3 4 3 4 3 4 5 6 5 6 6 8 9 11 11 11 9 8 8 6 7 9 7 5 4 5 6 7 7 7 9 10 10 9
11 11 9 9 8 8 8 8 7 6 5 5 5 6 4 3 4 6 7 8 7 7 8 6 6 7 7 7 6 6 5 5 4 4 4 3 3 3 2 3 4 4 4 4 4 3 3 4 4 4 4 1 2 2 3 4 5 3 5 7 8 7 3 5 8 11 10 10 8 9 9 8 11 10 7 6 7 10 8 9 8 8 10 11 10
9 8 7 8 6 6 6 7 7 6 6 6 6 6 7 8 9 9 8 7 6 6 8 7 7 7 7 6 6 6 5 5 5 4 4 3 3 3 3 3 4 4 4 4 4 6 5 4 4 5 4 4 2 1 2 4 3 4 5 3 4 5 10 5 4 5 8 10 11 11 9 9 8 9 7 9 9 8 8 8 11 10 11 12 10
9 9 9 7 7 7 7 7 6 6 6 5 5 5 6 8 6 6 6 7 7 6 6 6 6 7 7 7 6 6 6 5 4 4 3 3 3 3 3 3 4 4 5 4 5 6 6 6 5 4 4 5 5 2 3 4 5 5 6 5 5 5 6 6 6 8 5 6 9 10 10 11 10 9 8 10 11 10 10 10 13 10 11 11 11
9 8 9 10 8 8 8 8 7 6 6 6 6 5 5 4 4 4 6 6 7 7 7 7 6 7 7 6 8 8 7 6 5 5 5 4 4 4 3 3 4 4 4 4 4 5 6 6 5 5 5 5 5 7 7 4 5 6 7 6 6 7 8 7 7 7 1 6 6 7 9 11 10 10 9 9 11 11 10 12 10 10 10 11 10
8 8 9 10 9 8 8 8 7 6 6 6 6 5 6 6 7 7 7 7 8 6 5 5 6 6 6 7 7 7 8 7 7 7 7 6 6 5 4 4 3 4 4 4 5 5 4 5 4 5 5 5 5 6 6 5 4 5 6 7 8 8 9 9 7 9 11 5 4 5 8 8 9 10 11 11 11 9 10 11 12 12 11 9 8
9 8 8 7 9 9 9 8 7 7 6 5 8 6 6 6 8 8 8 7 7 6 4 4 4 4 6 7 6 7 7 8 8 8 8 7 7 6 6 5 4 5 5 5 5 5 5 6 7 6 6 5 5 5 6 5 6 6 4 6 8 8 9 11 12 10 10 10 11 6 7 7 8 9 10 10 11 11 11 10 12 12 10 8 10
7 8 8 7 7 8 9 9 9 8 8 8 8 7 6 6 6 5 8 6 5 5 4 4 4 4 6 6 6 6 7 7 8 8 8 8 7 7 6 6 6 6 6 6 6 5 6 6 7 7 7 6 5 6 6 6 6 6 7 6 7 8 7 7 9 8 9 10 11 11 10 5 7 8 9 10 11 10 10 11 11 12 8 9 11
8 9 9 8 8 8 10 11 10 7 7 9 9 9 8 7 7 7 7 5 4 4 4 4 4 4 6 6 6 6 6 6 7 8 8 9 8 8 7 8 8 7 7 7 7 8 8 7 5 7 8 7 5 5 5 6 6 6 6 7 7 6 5 5 6 7 9 10 10 11 10 10 10 7 6 8 11 11 9 7 8 8 9 12 11
7 7 8 9 9 9 10 11 9 8 8 9 10 10 9 8 7 7 7 6 5 5 4 5 5 6 6 6 6 6 6 6 6 6 8 9 8 8 8 8 7 7 7 7 7 6 6 7 7 9 7 7 5 7 7 6 5 6 6 6 6 6 6 7 9 7 8 7 7 10 11 11 11 12 8 7 8 10 10 9 7 7 10 11 11
Wind_Direction
157 146 143 138 144 144 138 128 122 123 125 128 129 128 124 122 121 118 118 120 120 120 121 121 121 121 121 121 121 123 121 119 118 117 111 111 111 110 110 110 111 112 114 116 114 112 109 107 104 103 99 96 94 91 89 88 86 85 85 88 91 91 89 86 84 81 79 79 80 84 82 79 77 77 76 79 73 64 63 56 62 74 65 66 61
149 146 144 144 143 144 139 129 124 125 127 130 131 130 127 123 121 121 120 118 119 120 121 121 120 120 121 121 121 121 117 116 111 108 112 114 112 111 110 110 110 112 112 110 110 109 105 105 106 103 100 96 93 92 91 90 88 87 85 84 83 83 84 83 83 85 87 88 87 82 81 86 86 83 80 77 73 68 61 56 36 52 68 69 65
139 143 146 144 146 146 139 130 125 126 127 130 132 131 128 125 121 121 121 120 118 117 118 118 118 119 120 119 120 118 115 116 115 117 116 116 114 112 111 111 111 113 114 113 110 108 107 109 107 105 102 99 95 94 92 91 91 90 88 87 86 85 84 84 85 86 81 78 85 94 91 73 67 73 76 73 73 74 73 67 62 59 65 62 67
139 144 146 143 147 144 139 130 126 127 128 130 131 132 129 127 125 120 118 119 119 117 116 115 114 116 117 118 118 118 118 117 117 116 116 115 115 114 113 113 115 114 112 111 109 109 109 109 107 107 106 101 98 96 94 94 93 92 90 88 87 88 90 91 88 82 80 81 77 94 92 90 85 88 87 87 84 76 70 66 66 62 64 70 71
139 144 141 145 148 144 139 129 126 126 128 130 132 133 131 129 127 120 118 117 117 117 116 116 117 117 119 120 120 118 118 117 116 115 111 112 113 115 114 111 112 113 113 112 112 111 110 108 108 108 106 105 102 100 100 100 98 96 94 93 91 91 91 89 81 79 83 85 105 107 96 95 91 76 77 81 79 72 69 70 69 74 70 58 55
143 143 142 145 146 145 141 131 127 127 129 131 133 133 133 132 128 125 121 119 117 117 116 117 119 121 119 118 118 117 116 116 115 110 102 102 102 111 110 110 109 112 114 113 112 110 109 108 108 109 109 106 106 105 105 106 104 98 92 95 100 100 96 88 84 84 88 96 95 90 94 93 93 95 88 79 80 81 79 75 72 65 62 67 73
144 146 144 145 147 147 144 133 129 129 129 130 132 134 135 132 130 127 124 121 119 117 116 116 115 114 116 117 117 117 116 115 113 103 98 101 101 105 108 104 105 108 112 112 112 110 108 108 106 105 103 105 107 107 106 109 110 102 87 91 104 103 99 89 85 87 104 109 94 98 98 96 91 93 94 94 87 84 82 75 71 71 70 65 57
143 144 145 145 146 145 146 135 130 130 128 128 132 135 134 131 130 129 126 123 119 117 112 105 108 114 115 114 114 112 111 107 102 102 99 98 96 94 99 102 98 99 103 107 109 109 108 108 105 103 103 104 109 111 113 116 118 113 101 104 104 106 104 97 94 94 99 92 96 90 91 92 97 98 98 92 93 92 85 82 81 81 76 71 65
144 146 144 143 144 144 144 136 130 128 126 128 130 132 132 130 130 129 127 123 119 117 119 119 114 112 112 110 110 109 106 106 104 100 97 97 95 101 98 95 96 97 97 99 103 105 107 105 102 101 102 103 104 106 107 108 116 126 124 119 112 110 108 107 103 107 100 92 93 97 98 100 97 94 98 93 89 94 99 103 110 93 86 71 67
142 142 141 146 148 146 141 135 128 126 127 128 127 130 131 129 128 129 127 124 121 119 123 120 117 113 110 109 108 107 104 103 102 106 105 102 100 97 92 87 86 90 95 98 97 98 98 100 104 105 101 100 101 100 99 105 115 130 134 136 125 117 110 108 116 109 102 102 95 85 76 86 96 93 98 99 98 94 86 65 61 62 71 76 76
142 142 147 147 148 134 133 131 127 127 128 128 129 128 128 128 127 128 128 126 121 123 124 121 117 113 112 111 109 106 105 106 106 105 102 99 95 94 93 89 85 84 90 91 93 96 101 102 104 101 99 98 97 98 104 107 103 111 129 132 126 120 116 119 137 112 106 102 100 108 98 98 92 95 103 102 97 91 85 81 76 76 76 70 68
145 144 147 146 134 127 130 130 129 129 131 130 128 126 126 126 126 128 127 124 124 125 123 117 116 114 112 107 105 106 104 102 99 94 95 95 95 92 88 86 80 78 81 86 91 95 98 100 103 103 102 99 94 97 105 105 97 102 120 125 121 119 120 132 121 110 109 106 105 102 97 103 102 99 103 99 95 89 83 76 74 71 70 63 60
146 145 144 144 137 129 129 128 130 130 129 127 126 126 125 127 128 128 124 122 124 123 122 116 112 110 109 109 108 104 102 101 101 100 94 91 87 86 84 81 77 78 85 91 92 93 97 100 103 104 102 99 96 100 108 110 106 110 117 120 119 117 119 134 122 116 115 111 110 109 103 94 92 97 107 108 98 88 84 77 77 73 65 63 56
144 144 146 140 137 131 127 126 124 126 126 126 126 125 127 127 127 124 114 109 118 118 114 115 112 111 110 106 102 100 98 96 93 88 84 82 87 89 87 84 84 86 86 86 87 91 98 100 101 101 100 95 99 105 113 116 114 115 118 118 118 119 120 126 113 116 118 116 111 105 102 104 94 86 91 95 91 86 82 78 74 72 68 62 62
144 144 143 141 137 135 124 120 120 122 118 118 122 127 126 118 117 115 117 125 122 115 118 117 115 115 111 105 101 100 98 95 91 86 82 84 87 88 86 85 87 85 84 84 84 90 100 102 100 99 99 97 99 108 118 120 119 119 121 122 124 129 148 130 132 123 120 122 118 121 110 104 95 93 94 101 91 82 79 82 79 79 87 78 71
143 141 140 143 139 134 135 129 126 123 122 126 130 132 124 118 122 124 125 123 114 116 119 117 112 109 109 109 103 98 98 95 91 89 92 93 90 89 88 86 87 85 83 84 84 88 100 102 99 101 99 98 101 113 125 129 126 126 127 126 129 133 139 140 131 130 127 129 127 118 113 97 103 107 102 99 98 96 97 85 75 76 72 75 74
141 140 141 142 142 139 134 139 128 130 131 132 133 131 123 124 126 129 128 127 119 120 120 122 116 111 111 106 103 102 99 96 96 100 99 97 95 90 89 90 85 84 86 85 87 91 93 97 99 100 98 97 101 118 134 138 136 132 133 134 136 136 138 154 128 137 133 128 131 129 118 124 124 114 109 106 105 84 87 81 83 82 90 95 86
141 142 144 143 143 139 137 136 139 139 135 136 137 137 135 133 129 123 122 125 121 118 116 120 117 112 110 108 109 107 106 105 104 101 100 99 96 94 94 89 88 87 84 85 85 88 90 92 93 95 95 97 103 120 141 146 143 139 139 140 142 142 144 159 130 133 134 138 130 128 115 95 110 116 116 113 109 107 98 92 84 81 79 80 84
139 145 144 140 137 136 139 140 143 145 142 143 145 144 144 139 126 119 116 117 125 122 120 123 121 118 115 114 111 108 105 105 107 105 107 107 104 106 97 94 93 91 88 87 87 88 84 83 84 87 88 91 100 115 142 149 146 144 144 147 146 148 150 164 133 135 135 150 134 133 106 107 146 136 113 106 115 113 104 91 84 92 102 92 85
135 136 134 137 138 141 139 144 145 146 149 148 146 147 145 139 128 117 114 116 126 123 120 124 126 126 120 118 114 115 115 108 113 111 103 103 100 83 99 89 92 89 89 87 85 86 83 79 76 85 91 90 98 108 131 148 147 147 150 151 153 152 166 156 139 138 141 130 147 138 109 156 167 130 131 128 115 104 101 95 109 106 93 77 69
132 138 140 147 149 147 141 147 148 148 149 147 146 145 140 141 129 124 120 121 125 127 124 127 130 124 124 114 121 115 108 111 119 97 113 94 103 108 95 91 78 80 82 84 83 81 81 79 77 77 81 79 96 100 120 142 148 150 151 157 156 176 161 156 154 147 150 144 165 130 138 162 183 153 129 115 129 111 106 102 104 94 87 99 80
132 139 144 154 150 150 149 151 148 148 150 147 145 143 142 140 138 140 141 134 132 130 139 136 131 122 117 128 117 103 100 96 82 86 66 94 124 113 103 84 71 70 76 78 77 77 74 78 81 76 72 67 53 118 124 136 146 151 158 155 181 175 171 167 173 160 153 152 163 126 165 176 208 171 128 141 129 125 135 128 118 107 96 106 102
153 152 151 154 148 149 154 153 149 148 151 149 146 144 139 141 138 139 137 141 135 140 130 124 124 118 112 108 109 102 95 80 69 50 39 74 43 55 103 90 61 47 54 68 74 78 74 72 76 77 78 88 148 111 132 145 151 155 155 176 195 185 175 187 185 177 173 148 172 149 179 186 200 219 145 145 131 120 191 149 153 118 118 124 116
158 159 157 155 154 155 151 149 149 151 154 151 147 142 140 143 139 142 140 142 135 140 126 123 117 107 108 104 105 99 88 84 57 48 103 55 76 63 54 69 58 54 15 37 75 72 82 76 68 61 119 147 124 141 142 154 157 174 183 187 191 179 189 190 206 193 184 169 169 170 185 187 198 194 161 162 158 158 169 174 138 136 147 129 125
155 151 155 159 160 157 152 155 153 157 156 151 149 143 141 139 139 141 144 143 138 137 128 123 111 105 105 107 101 97 97 85 36 4 359 48 42 28 48 11 18 7 9 4 7 57 45 54 75 70 48 133 143 134 158 158 171 180 185 191 188 187 202 202 217 213 197 180 178 187 194 194 200 212 169 169 142 151 167 167 159 129 109 144 155
147 157 161 156 157 157 159 157 156 156 151 152 154 144 143 144 145 142 143 136 132 126 115 119 114 110 106 95 104 120 120 132 143 78 5 360 28 44 58 31 355 355 349 344 360 15 33 57 65 72 65 258 149 150 151 167 171 181 187 192 195 197 211 210 209 219 212 210 179 203 207 201 211 224 180 193 177 170 176 177 170 143 152 147 150
155 157 160 159 158 164 165 157 150 150 149 147 153 146 148 144 147 146 143 131 132 134 134 133 129 130 119 113 132 132 150 186 185 191 35 344 345 337 353 61 355 360 358 321 336 344 1 54 61 72 113 206 215 163 156 133 151 174 185 196 203 208 214 218 212 217 214 216 195 203 220 213 216 230 213 189 186 200 190 169 153 160 159 174 164
157 156 165 163 168 169 163 156 150 156 149 146 150 138 142 147 148 149 139 138 152 136 140 139 138 144 155 147 122 155 171 184 258 299 345 306 324 328 325 312 293 112 44 318 302 318 339 30 29 104 123 149 212 203 179 137 153 212 197 208 207 219 218 224 223 221 217 214 217 199 227 220 227 233 223 201 191 197 202 174 186 172 177 175 172
161 162 165 167 169 164 163 160 158 155 144 147 148 136 148 149 145 134 140 144 142 142 143 147 153 157 187 206 183 193 195 226 275 302 301 309 322 315 315 327 328 341 314 314 323 321 316 322 299 312 163 163 187 207 196 179 172 192 223 220 226 224 224 226 225 219 219 220 218 197 213 224 231 222 231 218 223 202 205 188 185 180 181 182 176
168 165 166 169 167 164 163 162 159 151 147 147 141 145 148 147 142 133 146 141 137 142 147 149 146 165 171 213 226 266 265 305 311 322 310 320 323 313 299 301 311 320 296 301 314 315 328 318 299 272 285 212 194 181 210 203 204 195 217 239 233 238 226 231 229 226 223 218 219 214 203 237 221 220 236 245 230 224 211 222 178 182 185 184 177
163 165 165 165 162 162 161 160 155 143 146 152 155 144 146 141 135 141 154 124 128 143 148 142 150 165 163 188 211 247 294 295 304 312 297 304 310 314 317 312 297 307 305 301 304 310 311 314 321 318 300 284 231 187 216 228 233 231 207 222 237 250 247 233 238 232 232 222 222 221 206 216 224 224 230 242 237 229 212 228 208 198 202 173 188
161 160 162 155 159 157 153 158 152 150 154 155 152 147 145 138 133 138 139 136 143 152 149 156 157 168 172 181 210 240 268 282 288 280 273 257 262 290 317 315 326 330 328 317 311 307 301 300 292 288 294 282 274 236 220 241 244 249 234 220 224 235 244 239 235 231 231 231 228 220 221 212 215 225 229 233 225 236 235 212 210 204 197 198 199
157 156 149 150 155 151 144 147 145 150 151 145 144 137 134 131 136 141 138 137 146 152 153 161 163 145 148 171 207 234 256 282 271 279 290 293 308 330 345 354 356 342 334 327 319 309 302 288 270 261 275 288 283 268 247 242 250 250 258 234 219 224 234 239 233 227 228 228 229 227 223 221 219 206 224 230 218 235 242 222 210 203 214 208 200
154 152 150 147 145 140 137 125 133 146 144 142 141 140 138 136 133 135 125 132 135 132 122 119 111 110 105 159 227 248 256 265 308 319 314 328 346 14 30 33 27 345 334 336 336 331 318 309 302 287 300 301 301 304 292 273 268 255 248 237 239 238 227 229 229 225 223 226 225 225 225 222 219 224 216 214 222 225 242 228 224 201 219 218 202
149 152 153 147 149 142 134 125 134 140 134 133 137 127 132 122 123 122 124 124 120 89 63 68 90 54 262 244 239 260 301 360 18 359 11 6 4 14 29 36 19 358 341 345 339 339 335 331 326 311 306 289 293 299 293 293 293 286 276 262 255 246 238 246 231 228 221 218 221 222 222 223 221 221 224 224 207 218 228 225 231 214 205 223 202
151 149 146 147 146 144 136 138 143 141 137 132 122 116 118 119 118 120 114 119 117 114 111 82 65 157 207 90 40 335 351 22 35 30 21 22 12 7 14 0 353 352 5 349 335 336 340 325 317 318 302 288 290 283 294 291 291 294 297 281 266 224 236 240 239 235 228 221 223 220 217 218 218 219 220 227 228 216 209 224 230 230 215 213 210
143 142 146 150 151 149 142 149 147 139 133 125 120 122 124 118 103 88 87 101 106 114 114 101 140 155 92 57 69 17 36 35 31 25 15 8 9 7 16 13 352 357 354 10 324 341 330 326 311 327 303 287 279 282 274 272 280 277 272 271 261 244 235 235 232 231 225 226 227 225 222 219 216 218 217 223 227 230 204 214 222 230 225 213 210
127 129 138 145 147 142 140 144 138 134 130 129 128 120 109 95 87 95 116 103 103 106 102 114 107 74 37 19 23 31 30 27 20 12 11 4 2 4 8 41 1 329 351 7 14 350 350 330 319 327 305 285 269 261 272 275 272 271 270 265 259 250 251 245 246 243 233 235 231 230 227 224 217 216 219 222 226 224 230 207 222 235 226 214 209
126 127 127 128 122 125 134 128 123 126 122 118 119 117 114 103 105 115 99 90 83 70 56 49 46 47 34 27 40 40 34 22 19 16 9 11 3 359 358 14 357 345 348 6 29 10 341 333 322 326 299 291 283 279 276 279 274 274 272 266 263 257 249 247 249 241 231 226 225 226 226 226 225 218 217 217 217 229 230 241 228 231 223 212 212
119 116 111 115 115 113 119 124 125 120 116 115 116 111 108 112 118 135 112 87 79 72 66 57 61 61 55 52 51 55 53 58 49 42 25 4 357 4 353 347 357 345 342 331 9 10 348 327 314 317 305 281 270 268 266 260 262 267 272 275 268 267 262 256 252 249 243 235 228 217 222 225 226 227 223 218 218 219 227 224 227 242 241 212 211
100 102 112 118 112 109 109 106 110 122 119 120 123 125 133 134 108 90 83 81 83 81 73 73 73 70 70 69 72 66 70 80 84 72 46 39 34 9 355 357 342 326 325 311 315 333 325 303 313 310 310 306 280 263 261 264 265 270 262 264 265 261 260 254 248 248 244 247 240 228 227 225 223 221 216 210 214 219 223 223 223 229 236 240 211
106 109 108 105 107 104 103 107 106 109 124 132 132 131 112 96 93 85 85 76 82 81 79 74 78 75 72 71 69 71 71 66 71 79 72 52 29 16 355 358 341 328 326 326 307 294 302 300 305 298 272 319 314 308 296 267 259 270 293 287 272 259 251 255 254 251 249 244 240 236 229 231 238 222 195 204 231 229 221 218 216 234 238 233 230
102 103 103 98 91 98 104 100 102 108 102 105 118 108 103 66 83 101 100 93 73 82 87 82 79 78 73 73 74 78 87 94 81 69 55 42 22 21 18 359 338 342 327 340 321 313 317 316 320 311 313 282 277 282 272 232 286 293 283 292 285 291 227 246 255 255 253 250 241 238 229 226 238 233 218 202 219 230 228 233 234 236 244 237 233
95 97 85 89 86 81 82 92 97 99 95 94 95 94 95 92 89 94 94 86 96 87 84 84 81 77 69 66 67 67 68 72 82 80 62 43 23 16 12 12 347 342 336 331 323 325 328 321 318 312 305 287 303 270 237 260 258 288 279 254 303 295 294 274 278 260 235 239 239 241 238 238 233 225 213 216 228 227 223 215 221 226 234 237 231
86 87 94 88 91 81 80 78 71 66 69 71 81 100 105 100 100 92 91 92 84 79 82 71 71 74 73 66 65 61 57 61 63 58 56 44 31 19 17 13 359 352 345 337 336 335 330 325 325 322 305 295 301 289 239 235 233 227 265 286 271 259 271 306 314 285 252 242 237 239 238 239 237 232 217 222 227 227 225 218 226 223 229 233 231
75 74 79 86 83 79 76 74 71 64 66 62 64 69 76 85 82 79 76 76 70 61 55 60 65 66 67 66 63 60 63 60 58 58 51 46 40 26 21 23 20 10 1 354 342 340 338 329 333 325 312 309 303 300 288 225 229 225 230 254 281 292 305 309 306 291 219 241 249 223 232 237 237 238 229 223 228 231 225 227 220 217 223 233 237
81 86 88 86 78 72 70 72 71 71 64 67 65 72 75 75 81 85 82 82 90 73 70 70 75 79 75 71 66 57 52 51 51 50 46 39 34 30 23 21 23 21 22 6 1 349 337 329 324 313 309 320 320 314 303 297 266 240 243 246 251 259 268 284 287 296 296 277 221 251 252 244 242 239 239 239 237 234 233 229 228 227 220 220 224
100 90 81 74 69 71 70 66 67 64 56 66 73 72 79 76 90 92 95 97 96 102 86 74 69 74 74 71 74 63 52 45 41 48 46 38 30 24 18 17 23 31 12 11 5 357 345 336 326 319 318 322 317 313 317 314 304 298 265 254 253 259 260 263 265 272 282 290 287 267 256 253 246 239 240 239 238 234 229 231 234 229 224 204 202
88 85 86 82 78 73 70 63 58 54 49 54 65 65 74 85 78 77 89 82 87 90 89 77 71 69 68 67 65 61 54 45 37 40 41 40 36 26 22 25 33 31 23 19 10 353 348 347 339 336 328 319 314 317 314 312 310 303 311 289 282 277 253 244 257 251 267 281 280 281 283 251 247 255 245 239 240 237 230 228 233 237 216 208 211
91 95 92 84 73 71 69 66 60 53 49 55 63 62 62 62 77 84 89 89 88 87 79 80 67 56 61 53 49 48 45 44 37 34 32 37 36 33 33 34 34 33 29 27 23 6 353 344 339 318 313 308 321 320 315 310 303 301 300 302 299 299 271 263 253 256 256 248 267 281 289 291 286 279 238 240 239 241 239 228 230 228 224 229 224
91 84 84 81 82 76 75 72 63 59 52 55 61 64 61 62 69 72 79 84 82 78 73 56 49 48 48 50 48 47 45 43 32 31 30 30 33 35 32 28 26 22 18 22 21 6 353 351 350 338 318 314 324 326 315 305 299 297 297 298 297 293 290 287 289 279 269 271 273 274 279 281 285 286 272 241 243 243 242 235 215 218 228 231 234